Theta_e
302 303 302 302 303 303 302 301 299 296 292 291 289 288 289 291 292 293 292 291 292 290 288 287 285 285 283 282 281 280 280 281 278 277 279 281 280 280 280 280 281 280 279
301 302 301 301 301 300 300 299 296 293 288 287 286 285 286 288 290 291 290 290 289 288 286 285 284 284 281 281 280 280 280 281 281 277 277 278 279 280 280 279 279 280 279
301 300 299 299 298 298 297 296 292 288 286 285 284 285 286 286 286 287 287 287 287 286 285 284 283 282 281 281 280 280 279 280 280 279 277 278 279 279 278 278 279 279 280
300 299 297 297 297 296 295 291 288 286 284 283 284 284 285 284 285 286 285 285 284 284 284 283 282 281 280 280 280 280 279 279 278 278 278 277 277 278 278 277 277 279 278
298 297 296 296 296 294 290 287 285 284 283 283 284 283 282 283 283 283 284 284 283 283 282 282 282 281 283 282 280 279 279 278 278 277 278 277 277 277 276 278 277 277 278
296 296 294 292 291 290 288 286 284 283 282 282 282 282 281 281 286 287 284 283 283 282 281 281 281 282 283 285 285 284 282 279 278 278 278 277 277 278 278 278 277 276 273
291 290 290 289 288 288 287 285 284 282 282 281 282 281 281 282 286 287 286 283 282 282 281 281 281 281 281 282 285 285 284 285 283 281 279 279 278 279 279 278 278 277 275
288 286 286 285 285 286 285 284 282 281 282 282 281 281 281 281 287 287 286 282 282 282 281 281 280 280 281 281 281 281 281 281 283 283 281 280 280 280 280 280 278 276 276
286 286 284 284 283 284 282 281 280 280 282 282 282 281 281 281 286 287 285 282 281 281 281 281 281 280 282 285 281 280 280 281 284 285 285 284 284 285 283 280 275 274 272
285 285 285 283 283 282 282 280 279 282 282 281 281 281 281 281 286 287 285 282 280 280 280 280 282 281 284 285 280 280 278 279 279 278 280 283 284 282 284 282 279 275 276
282 282 281 281 280 281 280 278 278 278 280 280 280 280 280 281 283 287 287 282 281 280 280 279 280 284 286 287 284 280 280 281 280 278 278 278 279 279 278 279 280 278 276
280 279 277 276 280 279 278 275 276 276 275 276 278 278 279 279 283 286 287 284 284 281 280 280 281 285 287 288 287 285 285 284 279 278 278 277 277 277 277 278 278 278 278
275 273 273 274 276 276 276 275 275 273 274 273 275 275 276 278 279 285 287 287 285 281 281 282 283 285 287 287 288 287 285 283 281 278 276 277 277 277 278 276 275 275 274
273 272 273 273 274 275 277 276 275 273 274 276 276 277 276 277 277 278 282 285 284 283 283 282 284 284 286 286 284 286 285 284 282 280 279 278 276 274 274 274 272 272 269
275 275 275 275 274 276 276 276 277 277 278 276 275 278 277 276 277 280 281 281 284 283 282 277 278 282 281 282 282 282 281 282 281 281 278 273 273 273 272 273 271 269 266
279 278 278 277 274 276 277 277 284 283 284 284 284 280 278 282 283 283 283 285 286 286 283 281 280 280 280 280 281 281 280 279 278 277 276 275 273 272 271 271 269 267 265
280 279 279 279 279 279 278 278 276 280 284 284 284 284 284 284 284 284 284 284 285 285 280 281 280 280 281 280 279 275 272 272 272 273 272 271 270 270 269 267 267 264 261
282 281 281 281 280 280 279 279 278 279 278 277 281 281 282 282 283 285 285 284 280 282 280 279 279 280 277 275 274 272 268 268 268 269 269 268 267 267 265 264 264 260 257
277 277 278 277 278 278 278 278 278 278 278 276 276 278 276 281 281 280 281 277 277 277 274 274 274 274 274 273 269 267 266 265 265 264 265 265 265 264 262 261 260 259 258
270 274 274 273 273 273 275 275 275 275 275 275 273 271 273 271 270 263 268 270 271 271 270 269 267 267 264 264 263 263 263 263 262 263 263 263 263 262 260 259 258 256 255
270 270 270 269 266 266 267 268 268 270 271 269 264 265 274 265 266 260 261 262 260 259 259 260 258 259 260 260 261 261 262 262 262 262 261 260 260 258 259 259 256 254 251
268 267 267 265 263 265 264 265 265 264 264 263 260 263 271 261 262 260 259 256 255 255 254 255 256 256 257 259 260 259 259 260 260 260 260 260 258 256 256 255 253 251 250
267 265 265 265 264 264 263 261 261 261 261 260 258 256 255 254 254 254 254 252 252 252 251 251 252 252 253 254 256 257 258 259 259 259 258 258 256 255 253 253 251 250 250
264 264 263 262 262 261 261 260 260 260 259 256 255 253 252 251 251 251 251 250 250 249 249 249 249 249 250 251 253 254 255 254 254 256 257 256 255 255 254 253 253 253 251
261 261 261 260 259 259 260 260 259 257 254 254 252 252 250 251 250 250 249 249 248 248 248 248 248 249 252 253 253 254 256 260 256 256 255 256 255 255 255 254 253 249 248
260 260 259 259 259 259 258 257 256 254 253 252 252 251 251 251 250 250 249 249 249 248 248 248 248 250 251 253 254 255 256 259 257 257 255 254 254 254 253 252 251 251 248
Wind_Speed
6 6 7 6 7 6 6 6 7 6 7 7 7 7 9 8 8 8 6 6 10 7 6 8 7 8 4 4 4 3 4 4 6 1 3 4 5 5 4 4 5 4 4
7 7 7 7 6 7 7 7 7 8 7 7 7 7 7 8 9 10 9 9 11 11 10 9 9 8 10 7 5 5 3 3 5 5 3 3 4 5 5 5 4 4 4
7 7 7 7 7 7 7 7 7 7 7 7 8 9 9 9 9 8 8 8 8 9 10 11 11 11 9 7 7 7 5 4 4 4 4 2 2 3 3 3 4 5 4
6 7 7 8 7 7 7 7 7 7 8 7 7 8 8 8 9 9 9 9 8 9 9 10 10 10 10 9 7 6 5 5 3 4 3 3 3 2 3 3 3 3 4
7 7 8 7 7 7 7 7 7 7 7 7 7 6 7 8 7 10 11 11 10 9 8 9 9 8 12 11 8 7 7 4 4 3 2 3 3 3 4 3 4 2 3
8 9 6 6 7 7 7 8 7 7 6 7 7 8 8 6 15 17 11 9 11 12 11 9 8 10 12 16 13 14 11 9 5 3 2 3 4 3 4 3 3 2 3
7 7 7 6 6 6 6 7 8 8 7 7 7 8 8 8 18 20 18 9 10 10 10 10 8 6 9 9 13 14 12 10 6 4 3 5 2 5 5 4 5 4 4
6 5 4 4 5 6 6 6 4 5 8 7 8 8 7 7 19 20 17 9 9 10 11 11 11 10 11 11 10 8 5 4 5 4 6 4 4 3 4 4 4 3 3
3 4 4 5 5 5 5 5 3 4 3 3 4 6 8 7 19 20 18 10 10 11 10 11 11 10 16 19 10 9 7 6 9 14 16 12 10 12 8 3 4 3 5
4 4 4 5 5 6 6 7 5 5 5 4 4 4 4 5 18 20 18 7 8 8 9 11 18 13 20 20 10 9 8 7 7 4 3 10 10 6 14 10 5 7 6
1 2 3 3 4 5 5 3 5 5 6 6 6 4 6 7 11 22 23 9 8 8 8 7 6 18 20 20 16 9 9 7 11 7 6 6 6 6 6 6 7 6 6
4 4 3 3 3 3 5 3 5 5 5 5 5 4 2 1 4 15 19 15 8 4 5 5 6 19 19 20 14 15 16 12 5 7 7 8 7 7 6 7 7 6 3
5 4 3 4 4 4 6 6 4 4 4 4 4 4 3 1 1 12 16 16 13 6 5 9 13 18 20 16 18 17 16 7 7 7 8 9 8 6 5 5 4 3 2
4 3 3 5 4 3 3 3 4 4 3 4 5 5 4 4 3 2 4 7 13 9 9 6 9 11 16 14 8 11 8 7 9 9 9 4 5 5 4 3 3 3 2
3 3 3 2 2 4 3 4 3 1 4 3 2 3 5 4 5 9 6 5 6 8 7 3 2 5 7 9 7 8 6 6 7 7 5 5 4 4 4 4 3 3 3
3 4 3 4 2 3 3 3 8 6 5 4 5 4 2 3 7 11 13 14 13 15 6 6 6 7 8 8 9 9 6 8 6 5 4 5 5 5 5 3 3 3 3
4 5 5 4 2 3 4 5 4 3 8 5 4 4 5 6 3 7 9 11 13 13 4 7 7 6 7 6 4 3 3 2 3 4 4 4 4 4 5 3 3 3 2
4 4 1 5 4 4 2 3 3 3 3 2 11 11 12 10 10 9 2 6 2 6 2 4 5 5 3 3 3 2 2 2 2 3 4 4 4 4 3 3 3 3 2
4 3 5 4 5 4 4 5 5 5 5 3 2 6 7 14 13 13 13 5 3 3 3 4 4 3 2 2 2 3 3 2 2 2 2 3 4 3 2 3 3 4 4
3 10 7 5 5 5 4 4 5 5 4 4 4 3 3 3 3 3 4 4 4 4 3 3 3 3 3 2 3 3 3 3 2 2 2 3 3 3 3 4 4 3 3
3 6 8 6 4 4 4 4 4 4 4 5 2 2 6 3 4 4 4 4 4 3 3 3 2 2 2 2 3 3 2 2 3 3 3 3 4 3 3 3 4 4 3
5 6 6 6 4 5 4 4 5 5 5 5 2 4 10 3 4 3 3 3 2 2 1 2 2 2 3 3 3 3 3 3 4 4 5 5 4 3 3 2 3 2 3
7 6 6 6 5 5 5 5 5 4 4 4 3 3 3 3 2 3 2 1 2 1 0 1 0 1 0 0 1 2 3 4 3 4 4 4 4 4 3 3 3 3 3
6 6 6 5 5 4 3 4 4 4 4 3 3 2 2 1 1 0 1 1 1 1 1 2 2 2 2 2 2 1 1 1 2 4 6 5 5 6 4 4 4 5 4
5 5 5 4 3 4 4 3 3 3 3 2 1 0 1 1 2 2 3 2 2 2 3 3 3 4 5 5 4 5 6 7 5 4 3 4 6 7 6 4 4 3 4
5 5 4 3 4 4 3 2 2 2 1 1 1 2 3 3 3 3 2 2 3 3 4 3 4 6 6 6 7 9 9 10 8 9 5 5 6 5 4 5 7 3 4
Wind_Direction
211 194 188 207 207 204 197 186 173 153 147 161 166 172 178 177 181 183 175 173 173 156 152 162 150 129 146 138 114 138 139 130 134 159 116 145 149 160 174 208 232 221 247
203 188 205 207 200 198 196 183 165 160 162 170 165 169 175 177 182 185 181 177 175 172 169 159 157 156 151 150 144 141 139 110 123 134 123 132 158 187 186 201 216 220 225
197 191 199 209 204 203 194 174 158 155 165 170 170 177 177 178 178 182 174 165 172 172 162 161 163 158 159 152 157 150 142 121 104 133 130 125 137 176 172 224 224 236 230
198 200 204 207 208 194 181 168 163 165 166 177 187 181 177 176 179 178 170 169 157 162 160 152 153 157 159 157 148 135 125 112 114 112 102 137 162 163 147 201 248 236 247
194 210 216 200 193 177 172 173 171 172 176 175 171 172 169 174 173 167 167 163 153 147 148 146 141 148 156 160 150 152 139 123 120 122 128 173 161 140 195 192 210 218 260
194 216 207 196 194 190 176 172 170 170 173 168 180 175 173 177 182 180 165 162 163 160 157 147 147 149 160 161 155 155 154 148 153 137 165 190 186 189 173 172 180 181 266
201 207 204 198 198 194 175 171 175 174 164 177 177 174 184 180 189 187 179 166 158 159 154 150 150 163 149 150 154 154 171 160 146 154 184 191 193 196 168 188 200 201 219
202 186 185 167 178 176 171 176 160 156 178 180 178 178 171 179 188 187 174 159 157 157 158 155 160 170 162 155 146 141 143 161 187 192 216 217 185 182 184 177 197 234 286
217 207 187 165 164 161 168 157 148 129 153 174 170 167 168 174 188 189 179 172 162 163 157 154 161 168 174 167 152 159 165 204 210 223 236 229 228 235 217 177 206 218 266
252 236 198 161 168 179 169 162 150 148 146 138 140 155 163 176 185 193 182 173 173 168 172 169 169 174 184 172 162 170 183 212 186 192 238 246 236 255 262 240 199 223 243
127 101 109 139 159 159 146 141 137 135 140 144 147 151 172 181 198 202 196 184 191 183 174 161 171 185 184 186 182 170 196 182 205 204 218 221 224 214 214 227 228 229 244
72 76 78 103 107 109 117 79 97 115 113 114 119 103 92 91 197 206 199 192 194 167 173 166 181 192 194 199 196 198 218 207 190 206 216 228 220 215 208 202 203 211 212
82 78 70 55 63 94 109 110 104 107 116 133 136 139 146 143 157 210 216 200 191 171 154 172 192 201 210 211 213 212 217 208 209 208 216 226 214 209 173 150 132 127 138
88 91 81 87 75 70 95 110 124 125 136 155 153 159 149 154 181 189 199 205 190 177 181 188 191 201 212 217 215 224 222 213 211 225 231 206 143 143 144 140 155 170 166
98 102 99 98 124 121 105 128 112 137 147 161 170 150 147 171 202 198 170 181 171 173 163 148 174 199 215 230 231 239 232 225 224 221 193 156 153 152 162 163 152 146 184
152 127 145 139 108 94 108 79 90 118 124 118 136 138 156 169 185 200 204 200 203 199 187 191 205 208 221 230 242 244 225 224 218 186 174 168 170 169 159 144 125 155 184
177 147 132 110 80 108 118 118 105 76 102 98 100 115 97 72 141 179 210 219 218 218 212 227 234 236 246 246 234 209 199 187 130 146 149 147 138 138 141 150 168 163 187
113 107 38 123 122 134 138 94 107 109 100 45 56 61 54 56 49 39 155 195 159 233 184 229 236 237 184 159 153 135 93 89 93 127 130 134 137 145 144 171 177 165 155
49 57 83 57 62 58 74 81 76 66 68 73 26 53 31 72 61 51 59 57 43 67 55 52 31 35 59 89 111 100 116 129 105 95 105 127 139 139 164 159 160 161 160
62 67 58 57 59 57 53 69 87 83 79 77 63 0 351 41 70 53 62 72 74 69 56 78 60 46 51 72 81 90 92 92 94 99 127 147 159 176 174 170 172 168 199
53 72 86 76 64 65 61 71 68 72 83 86 68 328 60 50 60 66 61 57 66 60 57 82 107 112 101 92 95 106 119 148 155 180 185 179 173 179 182 183 174 196 183
66 67 62 75 63 64 59 61 65 64 66 81 46 14 62 45 60 74 80 86 95 117 129 114 119 132 152 158 161 162 174 187 182 184 186 181 179 176 168 170 186 179 182
67 67 61 64 69 82 69 55 63 66 77 66 63 54 48 49 58 63 90 99 105 125 297 43 74 222 152 144 194 179 187 206 197 177 185 184 176 173 180 187 176 194 203
62 74 88 76 67 63 79 76 76 65 66 62 61 51 66 49 46 55 212 206 158 263 195 201 220 227 217 211 221 228 223 192 185 185 178 184 194 195 190 189 181 196 197
56 67 64 66 73 69 64 58 67 64 61 75 66 30 265 246 243 249 241 215 209 224 254 237 221 224 235 236 235 227 231 240 209 199 182 189 198 196 201 193 182 184 189
63 56 58 60 60 55 56 48 47 53 52 281 257 248 231 241 251 261 271 256 239 241 249 244 241 238 241 240 237 234 233 233 223 210 190 196 204 208 193 198 200 192 180